• In Czech Republic
  • List of Countries
  • For 7 days
  • Water Temperature
  • Satellite Maps
  • Weather Map
  • Weather Widgets
  • user-avatar
    Login

    Hourly Weather Kalat

    Today, 17 August, Friday

    Time Temperature Precipitation Wind Pressure Humidity
    00:00 +9°C° 0 mm 3 mps 481 mmHg 59%
    01:00 +8°C° 0 mm 3 mps 480 mmHg 61%
    02:00 +8°C° 0 mm 2 mps 480 mmHg 62%
    03:00 +8°C° 0 mm 2 mps 480 mmHg 64%
    04:00 +7°C° 0 mm 2 mps 479 mmHg 65%
    05:00 +7°C° 0 mm 2 mps 479 mmHg 68%
    06:00 +8°C° 0 mm 2 mps 480 mmHg 63%
    07:00 +8°C° 0 mm 2 mps 480 mmHg 59%
    08:00 +9°C° 0 mm 2 mps 481 mmHg 54%
    09:00 +12°C° 0 mm 2 mps 482 mmHg 49%
    10:00 +12°C° 0 mm 3 mps 482 mmHg 44%
    11:00 +13°C° 0 mm 3 mps 483 mmHg 39%
    12:00 +14°C° 0.1 mm 3 mps 483 mmHg 37%
    13:00 +15°C° 0.1 mm 4 mps 484 mmHg 35%
    14:00 +17°C° 0.1 mm 4 mps 484 mmHg 34%
    15:00 +15°C° 0.1 mm 4 mps 483 mmHg 35%
    16:00 +15°C° 0.1 mm 4 mps 483 mmHg 36%
    17:00 +14°C° 0.1 mm 4 mps 482 mmHg 38%
    18:00 +13°C° 0 mm 4 mps 482 mmHg 41%
    19:00 +12°C° 0 mm 4 mps 481 mmHg 45%
    20:00 +11°C° 0 mm 3 mps 480 mmHg 48%
    21:00 +10°C° 0 mm 3 mps 480 mmHg 50%
    22:00 +9°C° 0 mm 3 mps 480 mmHg 52%
    23:00 +8°C° 0 mm 3 mps 479 mmHg 55%

    Tomorrow, 18 August, Saturday

    Time Temperature Precipitation Wind Pressure Humidity
    00:00 +8°C° 0 mm 3 mps 479 mmHg 56%
    01:00 +7°C° 0 mm 2 mps 478 mmHg 58%
    02:00 +7°C° 0 mm 2 mps 478 mmHg 60%
    03:00 +6°C° 0 mm 2 mps 477 mmHg 61%
    04:00 +6°C° 0 mm 2 mps 477 mmHg 62%
    05:00 +5°C° 0 mm 2 mps 477 mmHg 64%
    06:00 +6°C° 0 mm 2 mps 477 mmHg 58%
    07:00 +7°C° 0 mm 2 mps 478 mmHg 52%
    08:00 +8°C° 0 mm 2 mps 479 mmHg 46%
    09:00 +9°C° 0 mm 2 mps 480 mmHg 40%
    10:00 +12°C° 0 mm 2 mps 481 mmHg 35%
    11:00 +13°C° 0 mm 2 mps 481 mmHg 29%
    12:00 +13°C° 0 mm 3 mps 482 mmHg 28%
    13:00 +14°C° 0 mm 3 mps 482 mmHg 26%
    14:00 +15°C° 0 mm 4 mps 482 mmHg 25%
    15:00 +15°C° 0 mm 4 mps 482 mmHg 27%
    16:00 +14°C° 0 mm 4 mps 482 mmHg 29%
    17:00 +14°C° 0 mm 4 mps 482 mmHg 30%
    18:00 +13°C° 0 mm 4 mps 481 mmHg 34%
    19:00 +11°C° 0 mm 3 mps 481 mmHg 38%
    20:00 +10°C° 0 mm 3 mps 480 mmHg 42%
    21:00 +10°C° 0 mm 2 mps 480 mmHg 44%
    22:00 +9°C° 0 mm 2 mps 480 mmHg 46%
    23:00 +8°C° 0 mm 2 mps 479 mmHg 48%

    Day after tomorrow, 19 August, Sunday

    Time Temperature Precipitation Wind Pressure Humidity
    00:00 +8°C° 0 mm 2 mps 479 mmHg 50%
    01:00 +7°C° 0 mm 2 mps 478 mmHg 51%
    02:00 +7°C° 0 mm 2 mps 478 mmHg 52%
    03:00 +6°C° 0 mm 2 mps 478 mmHg 53%
    04:00 +6°C° 0 mm 2 mps 477 mmHg 54%
    05:00 +5°C° 0 mm 2 mps 477 mmHg 55%
    06:00 +6°C° 0 mm 2 mps 478 mmHg 47%
    07:00 +8°C° 0 mm 2 mps 479 mmHg 40%
    08:00 +9°C° 0 mm 2 mps 479 mmHg 32%
    09:00 +10°C° 0 mm 2 mps 480 mmHg 28%
    10:00 +12°C° 0 mm 2 mps 481 mmHg 23%
    11:00 +14°C° 0 mm 2 mps 482 mmHg 19%
    12:00 +14°C° 0 mm 3 mps 482 mmHg 19%
    13:00 +16°C° 0 mm 3 mps 483 mmHg 18%
    14:00 +15°C° 0 mm 4 mps 483 mmHg 18%
    15:00 +15°C° 0 mm 4 mps 483 mmHg 20%
    16:00 +15°C° 0 mm 4 mps 482 mmHg 22%
    17:00 +14°C° 0 mm 4 mps 482 mmHg 24%
    18:00 +13°C° 0 mm 4 mps 482 mmHg 27%
    19:00 +12°C° 0 mm 3 mps 481 mmHg 30%
    20:00 +11°C° 0 mm 3 mps 481 mmHg 33%
    21:00 +10°C° 0 mm 2 mps 481 mmHg 35%
    22:00 +9°C° 0 mm 2 mps 480 mmHg 36%
    23:00 +9°C° 0 mm 2 mps 480 mmHg 38%

    20 August, Monday

    Time Temperature Precipitation Wind Pressure Humidity
    00:00 +8°C° 0 mm 2 mps 480 mmHg 40%
    01:00 +8°C° 0 mm 2 mps 479 mmHg 41%
    02:00 +7°C° 0 mm 2 mps 479 mmHg 43%
    03:00 +7°C° 0 mm 2 mps 478 mmHg 43%
    04:00 +6°C° 0 mm 2 mps 478 mmHg 44%
    05:00 +6°C° 0 mm 2 mps 478 mmHg 44%
    06:00 +7°C° 0 mm 2 mps 479 mmHg 38%
    07:00 +8°C° 0 mm 2 mps 480 mmHg 31%
    08:00 +10°C° 0 mm 2 mps 481 mmHg 25%
    09:00 +12°C° 0 mm 2 mps 482 mmHg 21%
    10:00 +14°C° 0 mm 2 mps 483 mmHg 17%
    11:00 +16°C° 0 mm 2 mps 484 mmHg 13%
    12:00 +16°C° 0 mm 3 mps 484 mmHg 14%
    13:00 +17°C° 0 mm 3 mps 485 mmHg 14%
    14:00 +18°C° 0 mm 4 mps 485 mmHg 14%
    15:00 +17°C° 0 mm 4 mps 485 mmHg 16%
    16:00 +17°C° 0 mm 4 mps 485 mmHg 18%
    17:00 +17°C° 0 mm 4 mps 484 mmHg 20%
    18:00 +14°C° 0 mm 4 mps 484 mmHg 23%
    19:00 +13°C° 0 mm 4 mps 483 mmHg 27%
    20:00 +11°C° 0 mm 4 mps 483 mmHg 30%
    21:00 +10°C° 0 mm 3 mps 482 mmHg 32%
    22:00 +10°C° 0 mm 3 mps 482 mmHg 35%
    23:00 +9°C° 0 mm 3 mps 481 mmHg 37%

    21 August, Tuesday

    Time Temperature Precipitation Wind Pressure Humidity
    00:00 +8°C° 0 mm 3 mps 481 mmHg 38%
    01:00 +8°C° 0 mm 3 mps 480 mmHg 39%
    02:00 +7°C° 0 mm 3 mps 480 mmHg 41%
    03:00 +5°C° 0 mm 3 mps 479 mmHg 41%
    04:00 +5°C° 0 mm 3 mps 479 mmHg 41%
    05:00 +4°C° 0 mm 3 mps 479 mmHg 41%
    06:00 +7°C° 0 mm 3 mps 480 mmHg 35%
    07:00 +7°C° 0 mm 4 mps 481 mmHg 30%
    08:00 +8°C° 0 mm 4 mps 482 mmHg 24%
    09:00 +11°C° 0 mm 4 mps 482 mmHg 22%
    10:00 +12°C° 0 mm 4 mps 483 mmHg 20%
    11:00 +13°C° 0 mm 4 mps 484 mmHg 18%
    12:00 +14°C° 0 mm 4 mps 484 mmHg 18%
    13:00 +15°C° 0 mm 4 mps 484 mmHg 18%
    14:00 +15°C° 0 mm 4 mps 484 mmHg 18%
    15:00 +15°C° 0 mm 4 mps 484 mmHg 20%
    16:00 +14°C° 0 mm 4 mps 484 mmHg 21%
    17:00 +14°C° 0 mm 5 mps 483 mmHg 23%
    18:00 +13°C° 0 mm 4 mps 483 mmHg 26%
    19:00 +11°C° 0 mm 4 mps 482 mmHg 29%
    20:00 +10°C° 0 mm 4 mps 482 mmHg 33%
    21:00 +9°C° 0 mm 3 mps 481 mmHg 35%
    22:00 +8°C° 0 mm 3 mps 481 mmHg 37%
    23:00 +8°C° 0 mm 3 mps 480 mmHg 39%

    22 August, Wednesday

    Time Temperature Precipitation Wind Pressure Humidity
    00:00 +7°C° 0 mm 3 mps 480 mmHg 41%
    01:00 +5°C° 0 mm 3 mps 479 mmHg 42%
    02:00 +5°C° 0 mm 3 mps 479 mmHg 44%
    03:00 +4°C° 0 mm 3 mps 478 mmHg 46%
    04:00 +4°C° 0 mm 3 mps 478 mmHg 48%
    05:00 +3°C° 0 mm 3 mps 478 mmHg 50%
    06:00 +4°C° 0 mm 3 mps 478 mmHg 47%
    07:00 +5°C° 0 mm 3 mps 479 mmHg 44%
    08:00 +7°C° 0 mm 3 mps 480 mmHg 41%
    09:00 +9°C° 0 mm 3 mps 481 mmHg 36%
    10:00 +11°C° 0 mm 3 mps 482 mmHg 32%
    11:00 +12°C° 0 mm 3 mps 483 mmHg 27%
    12:00 +13°C° 0 mm 3 mps 483 mmHg 26%
    13:00 +14°C° 0 mm 4 mps 483 mmHg 25%
    14:00 +15°C° 0 mm 4 mps 483 mmHg 24%
    15:00 +14°C° 0 mm 4 mps 483 mmHg 26%
    16:00 +14°C° 0 mm 4 mps 483 mmHg 28%
    17:00 +14°C° 0 mm 4 mps 482 mmHg 30%
    18:00 +12°C° 0 mm 4 mps 482 mmHg 35%
    19:00 +11°C° 0 mm 3 mps 481 mmHg 40%
    20:00 +9°C° 0 mm 3 mps 481 mmHg 44%
    21:00 +9°C° 0 mm 3 mps 480 mmHg 47%
    22:00 +8°C° 0 mm 3 mps 480 mmHg 49%
    23:00 +7°C° 0 mm 3 mps 480 mmHg 51%
    Show more